Wheeler AAF, HI

4:14 AM HST on September 19, 2017 (GMT -1000)
Wheeler Army Air Field

Weather History for PHHI - January, 2014

Change the Weather History Date:

Wednesday, January 8, 2014

  Actual Average Record
Temperature  
Mean Temperature 68 °F -  
Max Temperature 73 °F 74 °F 80 °F (2002)
Min Temperature 64 °F 60 °F 55 °F (2003)
Cooling Degree Days 4    
Growing Degree Days 18 (Base 50)    
Moisture  
Dew Point 60 °F    
Average Humidity 77    
Maximum Humidity 94    
Minimum Humidity 57    
Precipitation  
Precipitation 0.00 in - - ()
Sea Level Pressure  
Sea Level Pressure 30.01 in    
Wind  
Wind Speed 8 mph (NNW)    
Max Wind Speed 16 mph    
Max Gust Speed 23 mph    
Visibility 10 miles    
Events Rain    
Averages and records for this station are not official NWS values.
T = Trace of Precipitation, MM = Missing Value Source: NWS Daily Summary

Daily Weather History Graph

Daily Weather History Graph

Search for Another Location

Airport or City:

Trip Planner

Search our weather history database for the weather conditions in past years. The results will help you decide how hot, cold, wet, or windy it might be!

Date:

Astronomy

Jan. 08, 2014 Rise Set
Actual Time 7:11 AM HST 6:06 PM HST
Civil Twilight 6:47 AM HST 6:30 PM HST
Nautical Twilight 6:20 AM HST 6:57 PM HST
Astronomical Twilight 5:53 AM HST 7:24 PM HST
Moon 12:44 PM HST (1/8) 12:53 AM HST (1/8)
Length of Visible Light 11h 42m
Length of Day
10h 54m
First Quarter, 58% of the Moon is Illuminated
Jan 8
First Quarter
Jan 15
Full
Jan 23
Last Quarter
Jan 30
New
Feb 6
First Quarter

Hourly Weather History & Observations

Time (HST) Temp. Dew Point Humidity Pressure Visibility Wind Dir Wind Speed Gust Speed Precip Events Conditions
12:58 AM 65.5 °F 56.5 °F 73% 30.05 in 10.0 mi North 6.9 mph - N/A   Partly Cloudy
1:58 AM 65.1 °F 56.1 °F 73% 30.03 in 10.0 mi NNW 6.9 mph - N/A   Scattered Clouds
2:58 AM 65.3 °F 56.7 °F 74% 30.01 in 10.0 mi North 4.6 mph - N/A   Clear
3:58 AM 65.3 °F 56.1 °F 72% 30.01 in 10.0 mi North 5.8 mph - N/A   Clear
4:58 AM 64.6 °F 55.4 °F 72% 30.01 in 10.0 mi NNW 8.1 mph - N/A   Partly Cloudy
5:58 AM 64.6 °F 55.6 °F 73% 30.04 in 10.0 mi NNW 8.1 mph - N/A   Clear
6:58 AM 64.2 °F 55.6 °F 73% 30.05 in 10.0 mi NNW 3.5 mph - N/A   Clear
7:58 AM 64.8 °F 57.0 °F 76% 30.05 in 10.0 mi NNW 5.8 mph - N/A   Clear
8:58 AM 69.3 °F 58.5 °F 68% 30.05 in 10.0 mi NW 8.1 mph - N/A   Scattered Clouds
9:14 AM 69.8 °F 59.0 °F 68% 30.07 in 10.0 mi NW 8.1 mph - N/A   Light Drizzle
9:24 AM 68.0 °F 59.0 °F 73% 30.07 in 10.0 mi North 9.2 mph - N/A Rain Light Rain
9:33 AM 68.0 °F 60.8 °F 78% 30.07 in 10.0 mi North 8.1 mph - N/A   Mostly Cloudy
9:38 AM 68.0 °F 60.8 °F 78% 30.07 in 10.0 mi North 8.1 mph - N/A   Mostly Cloudy
9:43 AM 69.8 °F 60.8 °F 73% 30.07 in 10.0 mi North 10.4 mph - N/A   Scattered Clouds
9:58 AM 69.6 °F 59.2 °F 69% 30.05 in 10.0 mi NNE 12.7 mph 18.4 mph 0.00 in   Partly Cloudy
10:58 AM 72.1 °F 57.2 °F 59% 30.04 in 10.0 mi NNE 11.5 mph - N/A   Partly Cloudy
11:58 AM 71.6 °F 57.6 °F 61% 30.02 in 10.0 mi North 16.1 mph 20.7 mph N/A   Mostly Cloudy
12:56 PM 73.4 °F 57.2 °F 57% 30.01 in 10.0 mi NNE 12.7 mph - N/A   Light Drizzle
12:58 PM 73.4 °F 57.2 °F 57% 29.99 in 10.0 mi NNE 10.4 mph - N/A   Light Drizzle
1:16 PM 69.8 °F 59.0 °F 68% 30.00 in 10.0 mi NNE 10.4 mph - N/A   Mostly Cloudy
1:31 PM 69.8 °F 59.0 °F 68% 29.99 in 10.0 mi NNE 10.4 mph - N/A   Mostly Cloudy
1:56 PM 69.8 °F 59.0 °F 68% 29.98 in 10.0 mi North 10.4 mph - N/A   Mostly Cloudy
1:58 PM 70.3 °F 59.4 °F 68% 29.96 in 10.0 mi NNE 9.2 mph - 0.00 in   Mostly Cloudy
2:11 PM 69.8 °F 59.0 °F 68% 29.97 in 10.0 mi NNW 11.5 mph 19.6 mph N/A   Light Drizzle
2:22 PM 68.0 °F 59.0 °F 73% 29.97 in 10.0 mi NNW 8.1 mph - N/A   Scattered Clouds
2:37 PM 69.8 °F 60.8 °F 73% 29.97 in 10.0 mi North 11.5 mph - N/A Rain Light Rain
2:54 PM 69.8 °F 60.8 °F 73% 29.96 in 10.0 mi North 9.2 mph - N/A   Mostly Cloudy
2:58 PM 69.6 °F 60.1 °F 72% 29.94 in 10.0 mi North 8.1 mph - 0.00 in   Scattered Clouds
3:23 PM 69.8 °F 60.8 °F 73% 29.97 in 7.0 mi North 11.5 mph 23.0 mph N/A Rain Light Rain
3:28 PM 68.0 °F 60.8 °F 78% 29.97 in 7.0 mi NNW 9.2 mph - N/A Rain Light Rain
3:40 PM 68.0 °F 62.6 °F 83% 29.97 in 10.0 mi NW 10.4 mph - N/A   Overcast
3:50 PM 68.0 °F 62.6 °F 83% 29.97 in 10.0 mi NNW 10.4 mph - N/A   Mostly Cloudy
3:58 PM 68.7 °F 61.7 °F 78% 29.96 in 10.0 mi North 9.2 mph - 0.00 in   Mostly Cloudy
4:13 PM 69.8 °F 60.8 °F 73% 29.97 in 10.0 mi North 10.4 mph - N/A   Mostly Cloudy
4:23 PM 69.8 °F 60.8 °F 73% 29.97 in 10.0 mi NNW 11.5 mph - N/A   Overcast
4:33 PM 69.8 °F 60.8 °F 73% 29.97 in 10.0 mi North 9.2 mph - N/A   Overcast
4:58 PM 70.0 °F 61.2 °F 73% 29.96 in 10.0 mi NNW 11.5 mph - N/A   Scattered Clouds
5:23 PM 69.8 °F 60.8 °F 73% 29.98 in 10.0 mi NNW 13.8 mph - N/A   Mostly Cloudy
5:38 PM 68.0 °F 62.6 °F 83% 29.99 in 10.0 mi NNW 8.1 mph - N/A   Scattered Clouds
5:55 PM 68.0 °F 62.6 °F 83% 29.99 in 10.0 mi NNW 11.5 mph - N/A   Light Drizzle
5:58 PM 67.6 °F 62.6 °F 84% 29.98 in 10.0 mi NNW 11.5 mph - 0.00 in   Light Drizzle
6:12 PM 66.2 °F 62.6 °F 88% 29.99 in 10.0 mi North 9.2 mph - N/A   Partly Cloudy
6:58 PM 65.8 °F 62.6 °F 89% 29.99 in 10.0 mi NNW 8.1 mph - 0.00 in   Clear
7:58 PM 65.7 °F 62.8 °F 90% 30.01 in 10.0 mi NW 5.8 mph - N/A   Clear
8:58 PM 65.3 °F 62.6 °F 91% 30.01 in 10.0 mi WNW 5.8 mph - N/A   Mostly Cloudy
9:38 PM 66.2 °F 64.4 °F 94% 30.04 in 10.0 mi NW 5.8 mph - N/A   Overcast
9:43 PM 66.2 °F 64.4 °F 94% 30.03 in 10.0 mi NW 5.8 mph - N/A   Overcast
9:58 PM 66.2 °F 64.4 °F 94% 30.01 in 10.0 mi NNW 9.2 mph - N/A   Overcast
10:03 PM 66.2 °F 64.4 °F 94% 30.03 in 10.0 mi NW 9.2 mph - N/A   Mostly Cloudy
10:53 PM 66.2 °F 64.4 °F 94% 30.03 in 10.0 mi Variable 6.9 mph - N/A   Overcast
10:58 PM 66.2 °F 63.7 °F 92% 30.01 in 10.0 mi NW 5.8 mph - N/A   Overcast
11:23 PM 66.2 °F 64.4 °F 94% 30.02 in 10.0 mi NW 6.9 mph - N/A   Mostly Cloudy
11:33 PM 66.2 °F 64.4 °F 94% 30.02 in 10.0 mi NW 5.8 mph - N/A   Mostly Cloudy
11:58 PM 66.0 °F 63.3 °F 91% 29.99 in 10.0 mi NW 3.5 mph - N/A   Overcast